,,Stat6,,Stat2,,Stat8,,Stat9,,Stat10,,Wind1,,Wind1,
time,status,PA1M_AVG,status,PR1M_SUM,status,RH1M_AVG,status,SR1M_AVG,status,TA1M_AVG,status,W1dAve1m,status,W1sAve1m,
2006-01-25, 00:00:00,VALID,919.008,VALID,0,VALID,99.2653,VALID,0.0679233,VALID,17.704,VALID,90,VALID,0.629278,
2006-01-25, 00:01:00,VALID,918.997,VALID,0,VALID,99.1801,VALID,0.0849042,VALID,17.7165,VALID,90,VALID,0.72154,
2006-01-25, 00:02:00,VALID,918.985,VALID,0,VALID,99.0822,VALID,0.101885,VALID,17.7389,VALID,100,VALID,0.713542,
2006-01-25, 00:03:00,VALID,918.992,VALID,0,VALID,98.9881,VALID,0.0679233,VALID,17.7749,VALID,109,VALID,0.717416,
2006-01-25, 00:04:00,VALID,918.985,VALID,0,VALID,98.8762,VALID,0.135847,VALID,17.7783,VALID,110,VALID,0.688227,
2006-01-25, 00:05:00,VALID,919.003,VALID,0,VALID,98.8367,VALID,0.101885,VALID,17.7719,VALID,112,VALID,0.560268,
2006-01-25, 00:06:00,VALID,918.992,VALID,0,VALID,98.8558,VALID,0.0679233,VALID,17.7585,VALID,113,VALID,0.676711,
2006-01-25, 00:07:00,VALID,918.984,VALID,0,VALID,98.9766,VALID,0.0509425,VALID,17.7296,VALID,114,VALID,0.674543,
2006-01-25, 00:08:00,VALID,918.994,VALID,0,VALID,99.0949,VALID,0.0679233,VALID,17.7266,VALID,114,VALID,0.639063,
2006-01-25, 00:09:00,VALID,918.992,VALID,0,VALID,99.203,VALID,0.0679233,VALID,17.7066,VALID,114,VALID,0.62315,
2006-01-25, 00:10:00,VALID,918.993,VALID,0,VALID,99.2437,VALID,0.0679233,VALID,17.7139,VALID,114,VALID,0.591442,
2006-01-25, 00:11:00,VALID,918.985,VALID,0,VALID,99.2602,VALID,0.118866,VALID,17.7038,VALID,114,VALID,0.619093,
2006-01-25, 00:12:00,VALID,918.991,VALID,0,VALID,99.2653,VALID,0.0509425,VALID,17.7003,VALID,114,VALID,0.794271,
2006-01-25, 00:13:00,VALID,918.969,VALID,0,VALID,99.2831,VALID,0.0849042,VALID,17.6975,VALID,114,VALID,0.774858,
2006-01-25, 00:14:00,VALID,918.97,VALID,0,VALID,99.2106,VALID,0.101885,VALID,17.7236,VALID,113,VALID,0.841992,
2006-01-25, 00:15:00,VALID,918.959,VALID,0,VALID,99.0173,VALID,0.101885,VALID,17.7523,VALID,111,VALID,0.366832,
2006-01-25, 00:16:00,VALID,918.954,VALID,0,VALID,98.7859,VALID,0.0849042,VALID,17.7811,VALID,111,VALID,0.375727,
2006-01-25, 00:17:00,VALID,918.945,VALID,0,VALID,98.6498,VALID,0.0679233,VALID,17.791,VALID,111,VALID,0.107376,
2006-01-25, 00:18:00,VALID,918.918,VALID,0,VALID,98.6091,VALID,0.0849042,VALID,17.7846,VALID,111,VALID,0.418241,
2006-01-25, 00:19:00,VALID,918.908,VALID,0,VALID,98.6409,VALID,0.0849042,VALID,17.7783,VALID,111,VALID,0.373224,
2006-01-25, 00:20:00,VALID,918.902,VALID,0,VALID,98.6574,VALID,0.118866,VALID,17.7749,VALID,111,VALID,0.500363,
2006-01-25, 00:21:00,VALID,918.878,VALID,0,VALID,98.6333,VALID,0.186789,VALID,17.7673,VALID,111,VALID,0.64027,
2006-01-25, 00:22:00,VALID,918.845,VALID,0,VALID,98.6155,VALID,0.220751,VALID,17.7509,VALID,111,VALID,0.663876,
2006-01-25, 00:23:00,VALID,918.835,VALID,0,VALID,98.6206,VALID,0.220751,VALID,17.7641,VALID,111,VALID,0.518532,
2006-01-25, 00:24:00,VALID,918.81,VALID,0,VALID,98.6282,VALID,0.186789,VALID,17.7544,VALID,111,VALID,0.474085,
2006-01-25, 00:25:00,VALID,918.802,VALID,0,VALID,98.6409,VALID,0.220751,VALID,17.7405,VALID,111,VALID,0.445685,
2006-01-25, 00:26:00,VALID,918.785,VALID,0,VALID,98.7681,VALID,0.20377,VALID,17.7242,VALID,111,VALID,0.317708,
2006-01-25, 00:27:00,VALID,918.77,VALID,0,VALID,98.8812,VALID,0.20377,VALID,17.7186,VALID,111,VALID,0.633345,
2006-01-25, 00:28:00,VALID,918.753,VALID,0,VALID,99.0287,VALID,0.20377,VALID,17.7087,VALID,111,VALID,0.72093,
2006-01-25, 00:29:00,VALID,918.728,VALID,0,VALID,99.0923,VALID,0.186789,VALID,17.7181,VALID,111,VALID,0.449491,
2006-01-25, 00:30:00,VALID,918.702,VALID,0,VALID,99.1292,VALID,0.20377,VALID,17.7218,VALID,111,VALID,0.195313,
2006-01-25, 00:31:00,VALID,918.679,VALID,0,VALID,99.1432,VALID,0.186789,VALID,17.7186,VALID,111,VALID,0.363653,
2006-01-25, 00:32:00,VALID,918.658,VALID,0,VALID,99.1483,VALID,0.220751,VALID,17.7154,VALID,111,VALID,0.575195,
2006-01-25, 00:33:00,VALID,918.638,VALID,0,VALID,99.1127,VALID,0.20377,VALID,17.7188,VALID,111,VALID,0.705669,
2006-01-25, 00:34:00,VALID,918.619,VALID,0,VALID,99.0224,VALID,0.220751,VALID,17.7022,VALID,111,VALID,0.622396,
2006-01-25, 00:35:00,VALID,918.597,VALID,0,VALID,99.0084,VALID,0.20377,VALID,17.7151,VALID,111,VALID,0.453295,
2006-01-25, 00:36:00,VALID,918.579,VALID,0,VALID,99.0338,VALID,0.186789,VALID,17.7188,VALID,111,VALID,0.238636,
2006-01-25, 00:37:00,VALID,918.553,VALID,0,VALID,98.9995,VALID,0.169808,VALID,17.7216,VALID,111,VALID,0.373935,
2006-01-25, 00:38:00,VALID,918.537,VALID,0,VALID,98.9525,VALID,0.20377,VALID,17.7186,VALID,111,VALID,0.464367,
2006-01-25, 00:39:00,VALID,918.512,VALID,0,VALID,98.9537,VALID,0.186789,VALID,17.7285,VALID,111,VALID,0.391493,
2006-01-25, 00:40:00,VALID,918.479,VALID,0,VALID,98.9054,VALID,0.169808,VALID,17.7283,VALID,111,VALID,0.471168,
2006-01-25, 00:41:00,VALID,918.461,VALID,0,VALID,98.8342,VALID,0.20377,VALID,17.7253,VALID,111,VALID,0.532227,
2006-01-25, 00:42:00,VALID,918.441,VALID,0,VALID,98.6956,VALID,0.169808,VALID,17.7449,VALID,111,VALID,0.550951,
2006-01-25, 00:43:00,VALID,918.404,VALID,0,VALID,98.4718,VALID,0.20377,VALID,17.7253,VALID,111,VALID,0.19455,
2006-01-25, 00:44:00,VALID,918.391,VALID,0,VALID,98.3929,VALID,0.169808,VALID,17.68,VALID,111,VALID,0.37593,
2006-01-25, 00:45:00,VALID,918.353,VALID,0,VALID,98.4921,VALID,0.20377,VALID,17.6479,VALID,111,VALID,0.485137,
2006-01-25, 00:46:00,VALID,918.34,VALID,0,VALID,98.6625,VALID,0.169808,VALID,17.6094,VALID,109,VALID,0.425195,
2006-01-25, 00:47:00,VALID,918.311,VALID,0,VALID,98.8723,VALID,0.169808,VALID,17.5766,VALID,109,VALID,0.350038,
2006-01-25, 00:48:00,VALID,918.29,VALID,0,VALID,99.0542,VALID,0.152827,VALID,17.5473,VALID,109,VALID,0.096875,
2006-01-25, 00:49:00,VALID,918.274,VALID,0,VALID,99.161,VALID,0.20377,VALID,17.554,VALID,109,VALID,0.118823,
2006-01-25, 00:50:00,VALID,918.255,VALID,0,VALID,99.2525,VALID,0.186789,VALID,17.5277,VALID,109,VALID,0.354936,
2006-01-25, 00:51:00,VALID,918.245,VALID,0,VALID,99.3085,VALID,0.152827,VALID,17.529,VALID,109,VALID,0.138808,
2006-01-25, 00:52:00,VALID,918.237,VALID,0,VALID,99.3644,VALID,0.0849042,VALID,17.5133,VALID,109,VALID,0.105646,
2006-01-25, 00:53:00,VALID,918.24,VALID,0,VALID,99.4217,VALID,0.0849042,VALID,17.5101,VALID,109,VALID,0.000190549,
2006-01-25, 00:54:00,VALID,918.221,VALID,0,VALID,99.4535,VALID,0.118866,VALID,17.5032,VALID,109,VALID,0.000744048,
2006-01-25, 00:55:00,VALID,918.21,VALID,0,VALID,99.4408,VALID,0.0849042,VALID,17.4806,VALID,109,VALID,0.0101744,
2006-01-25, 00:56:00,VALID,918.197,VALID,0,VALID,99.5437,VALID,0.0849042,VALID,17.4734,VALID,109,VALID,0.307594,
2006-01-25, 00:57:00,VALID,918.182,VALID,0,VALID,99.6378,VALID,0.118866,VALID,17.4806,VALID,109,VALID,0.424805,
2006-01-25, 00:58:00,VALID,918.184,VALID,0,VALID,99.6747,VALID,0.101885,VALID,17.4579,VALID,109,VALID,0.415879,
2006-01-25, 00:59:00,VALID,918.178,VALID,0,VALID,99.6989,VALID,0.101885,VALID,17.4487,VALID,130,VALID,0.454578,
2006-01-25, 01:00:00,VALID,918.182,VALID,0,VALID,99.7256,VALID,0.101885,VALID,17.4418,VALID,131,VALID,0.601017,
2006-01-25, 01:01:00,VALID,918.158,VALID,0,VALID,99.7892,VALID,0.0849042,VALID,17.4358,VALID,131,VALID,0.580171,
2006-01-25, 01:02:00,VALID,918.162,VALID,0,VALID,99.7866,VALID,0.101885,VALID,17.4293,VALID,131,VALID,0.661776,
2006-01-25, 01:03:00,VALID,918.137,VALID,0,VALID,99.8171,VALID,0.0849042,VALID,17.4327,VALID,135,VALID,0.761719,
2006-01-25, 01:04:00,VALID,918.124,VALID,0,VALID,99.8464,VALID,0.118866,VALID,17.4297,VALID,142,VALID,0.896289,
2006-01-25, 01:05:00,VALID,918.121,VALID,0,VALID,99.9062,VALID,0.0679233,VALID,17.4161,VALID,142,VALID,0.892628,
2006-01-25, 01:06:00,VALID,918.121,VALID,0,VALID,99.9557,VALID,0.0509425,VALID,17.4097,VALID,142,VALID,0.821948,
2006-01-25, 01:07:00,VALID,918.116,VALID,0,VALID,99.9697,VALID,0.0679233,VALID,17.4168,VALID,135,VALID,0.624645,
2006-01-25, 01:08:00,VALID,918.101,VALID,0,VALID,99.9634,VALID,0.101885,VALID,17.4067,VALID,135,VALID,0.566501,
2006-01-25, 01:09:00,VALID,918.079,VALID,0,VALID,99.9252,VALID,0.0849042,VALID,17.3968,VALID,135,VALID,0.743862,
2006-01-25, 01:10:00,VALID,918.055,VALID,0,VALID,99.9303,VALID,0.101885,VALID,17.3937,VALID,132,VALID,0.77798,
2006-01-25, 01:11:00,VALID,918.046,VALID,0,VALID,99.9954,VALID,0.101885,VALID,17.3808,VALID,126,VALID,0.793445,
2006-01-25, 01:12:00,VALID,918.031,VALID,0,VALID,99.9708,VALID,0.101885,VALID,17.3912,VALID,126,VALID,0.640443,
2006-01-25, 01:13:00,VALID,918.008,VALID,0,VALID,99.9952,VALID,0.0849042,VALID,17.3875,VALID,125,VALID,0.720152,
2006-01-25, 01:14:00,VALID,917.979,VALID,0,VALID,99.9901,VALID,0.0849042,VALID,17.3841,VALID,116,VALID,0.592634,
2006-01-25, 01:15:00,VALID,917.982,VALID,0,VALID,99.8853,VALID,0.0679233,VALID,17.3644,VALID,116,VALID,0.583576,
2006-01-25, 01:16:00,VALID,917.973,VALID,0,VALID,100,VALID,0.0849042,VALID,17.3905,VALID,116,VALID,0.698765,
2006-01-25, 01:17:00,VALID,917.959,VALID,0,VALID,100,VALID,0.0849042,VALID,17.4291,VALID,116,VALID,0.683984,
2006-01-25, 01:18:00,VALID,917.933,VALID,0,VALID,100,VALID,0.0849042,VALID,17.4683,VALID,115,VALID,0.76617,
2006-01-25, 01:19:00,VALID,917.93,VALID,0,VALID,100,VALID,0.0679233,VALID,17.5002,VALID,114,VALID,0.713356,
2006-01-25, 01:20:00,VALID,917.933,VALID,0,VALID,99.9466,VALID,0.101885,VALID,17.5069,VALID,112,VALID,0.738758,
2006-01-25, 01:21:00,VALID,917.907,VALID,0,VALID,99.8057,VALID,0.0679233,VALID,17.5262,VALID,108,VALID,0.80545,
2006-01-25, 01:22:00,VALID,917.896,VALID,0,VALID,99.704,VALID,0.0509425,VALID,17.5396,VALID,106,VALID,0.961119,
2006-01-25, 01:23:00,VALID,917.885,VALID,0,VALID,99.6696,VALID,0.0509425,VALID,17.5461,VALID,111,VALID,1.05398,
2006-01-25, 01:24:00,VALID,917.874,VALID,0,VALID,99.5857,VALID,0.0509425,VALID,17.5424,VALID,114,VALID,0.961128,
2006-01-25, 01:25:00,VALID,917.865,VALID,0,VALID,99.5145,VALID,0.0679233,VALID,17.5749,VALID,110,VALID,0.926339,
2006-01-25, 01:26:00,VALID,917.838,VALID,0,VALID,99.4395,VALID,0.0509425,VALID,17.5752,VALID,110,VALID,0.904652,
2006-01-25, 01:27:00,VALID,917.832,VALID,0,VALID,99.3479,VALID,0.0679233,VALID,17.5752,VALID,110,VALID,0.859375,
2006-01-25, 01:28:00,VALID,917.821,VALID,0,VALID,99.2347,VALID,0.0339617,VALID,17.5461,VALID,110,VALID,0.906059,
2006-01-25, 01:29:00,VALID,917.811,VALID,0,VALID,99.3339,VALID,0.0679233,VALID,17.5269,VALID,113,VALID,0.921303,
2006-01-25, 01:30:00,VALID,917.821,VALID,0,VALID,99.4268,VALID,0.0679233,VALID,17.481,VALID,118,VALID,0.824963,
2006-01-25, 01:31:00,VALID,917.817,VALID,0,VALID,99.512,VALID,0.0509425,VALID,17.4715,VALID,122,VALID,0.773438,
2006-01-25, 01:32:00,VALID,917.799,VALID,0,VALID,99.5883,VALID,0.0849042,VALID,17.472,VALID,123,VALID,0.839744,
2006-01-25, 01:33:00,VALID,917.793,VALID,0,VALID,99.6887,VALID,0.0849042,VALID,17.4489,VALID,123,VALID,0.775915,
2006-01-25, 01:34:00,VALID,917.79,VALID,0,VALID,99.7281,VALID,0.0509425,VALID,17.459,VALID,123,VALID,0.736737,
2006-01-25, 01:35:00,VALID,917.79,VALID,0,VALID,99.704,VALID,0.0679233,VALID,17.4424,VALID,124,VALID,0.635603,
2006-01-25, 01:36:00,VALID,917.779,VALID,0,VALID,99.7485,VALID,0.152827,VALID,17.4413,VALID,136,VALID,0.702398,
2006-01-25, 01:37:00,VALID,917.763,VALID,0,VALID,99.7675,VALID,0.186789,VALID,17.4381,VALID,125,VALID,0.804688,
2006-01-25, 01:38:00,VALID,917.735,VALID,0,VALID,99.8248,VALID,0.135847,VALID,17.4547,VALID,124,VALID,0.665516,
2006-01-25, 01:39:00,VALID,917.73,VALID,0,VALID,99.8044,VALID,0.186789,VALID,17.425,VALID,124,VALID,0.628162,
2006-01-25, 01:40:00,VALID,917.724,VALID,0,VALID,99.8082,VALID,0.169808,VALID,17.4245,VALID,124,VALID,0.382986,
2006-01-25, 01:41:00,VALID,917.719,VALID,0,VALID,99.8489,VALID,0.186789,VALID,17.4314,VALID,124,VALID,0.363554,
2006-01-25, 01:42:00,VALID,917.705,VALID,0,VALID,99.8502,VALID,0.186789,VALID,17.425,VALID,124,VALID,0.353871,
2006-01-25, 01:43:00,VALID,917.705,VALID,0,VALID,99.8184,VALID,0.186789,VALID,17.4222,VALID,124,VALID,0.0917969,
2006-01-25, 01:44:00,VALID,917.693,VALID,0,VALID,99.8222,VALID,0.169808,VALID,17.4159,VALID,124,VALID,0.229288,
2006-01-25, 01:45:00,VALID,917.682,VALID,0,VALID,99.8477,VALID,0.186789,VALID,17.3959,VALID,124,VALID,0.210938,
2006-01-25, 01:46:00,VALID,917.663,VALID,0,VALID,99.9265,VALID,0.135847,VALID,17.3933,VALID,124,VALID,0.301897,
2006-01-25, 01:47:00,VALID,917.659,VALID,0,VALID,99.988,VALID,0.186789,VALID,17.3825,VALID,124,VALID,0.333789,
2006-01-25, 01:48:00,VALID,917.664,VALID,0,VALID,99.9964,VALID,0.169808,VALID,17.3963,VALID,124,VALID,0.368676,
2006-01-25, 01:49:00,VALID,917.656,VALID,0,VALID,99.9489,VALID,0.118866,VALID,17.3797,VALID,121,VALID,0.443638,
2006-01-25, 01:50:00,VALID,917.659,VALID,0,VALID,99.9853,VALID,0.169808,VALID,17.3606,VALID,103,VALID,0.599077,
2006-01-25, 01:51:00,VALID,917.643,VALID,0,VALID,100,VALID,0.135847,VALID,17.383,VALID,98,VALID,0.632631,
2006-01-25, 01:52:00,VALID,917.635,VALID,0,VALID,100,VALID,0.152827,VALID,17.4323,VALID,98,VALID,0.837305,
2006-01-25, 01:53:00,VALID,917.633,VALID,0,VALID,100,VALID,0.152827,VALID,17.461,VALID,103,VALID,0.869284,
2006-01-25, 01:54:00,VALID,917.619,VALID,0,VALID,99.8464,VALID,0.152827,VALID,17.5032,VALID,103,VALID,0.733613,
2006-01-25, 01:55:00,VALID,917.639,VALID,0,VALID,99.545,VALID,0.101885,VALID,17.5191,VALID,103,VALID,0.701079,
2006-01-25, 01:56:00,VALID,917.622,VALID,0,VALID,99.4191,VALID,0.135847,VALID,17.5092,VALID,103,VALID,0.705305,
2006-01-25, 01:57:00,VALID,917.609,VALID,0,VALID,99.3505,VALID,0.152827,VALID,17.4868,VALID,105,VALID,0.780107,
2006-01-25, 01:58:00,VALID,917.611,VALID,0,VALID,99.4916,VALID,0.118866,VALID,17.4637,VALID,122,VALID,0.796875,
2006-01-25, 01:59:00,VALID,917.604,VALID,0,VALID,99.6315,VALID,0.152827,VALID,17.4607,VALID,122,VALID,0.882422,
2006-01-25, 02:00:00,VALID,917.601,VALID,0,VALID,99.6696,VALID,0.135847,VALID,17.4672,VALID,122,VALID,0.849432,
2006-01-25, 02:01:00,VALID,917.607,VALID,0,VALID,99.7523,VALID,0.169808,VALID,17.4506,VALID,119,VALID,0.859747,
2006-01-25, 02:02:00,VALID,917.601,VALID,0,VALID,99.8502,VALID,0.152827,VALID,17.4605,VALID,119,VALID,0.66226,
2006-01-25, 02:03:00,VALID,917.575,VALID,0,VALID,99.7548,VALID,0.169808,VALID,17.4545,VALID,117,VALID,0.540082,
2006-01-25, 02:04:00,VALID,917.557,VALID,0,VALID,99.7815,VALID,0.135847,VALID,17.4446,VALID,108,VALID,0.627308,
2006-01-25, 02:05:00,VALID,917.548,VALID,0,VALID,99.8655,VALID,0.135847,VALID,17.4478,VALID,100,VALID,0.841974,
2006-01-25, 02:06:00,VALID,917.555,VALID,0,VALID,99.9634,VALID,0.169808,VALID,17.4806,VALID,97,VALID,0.783913,
2006-01-25, 02:07:00,VALID,917.55,VALID,0,VALID,99.8019,VALID,0.169808,VALID,17.4958,VALID,97,VALID,0.579613,
2006-01-25, 02:08:00,VALID,917.54,VALID,0,VALID,99.4713,VALID,0.169808,VALID,17.5122,VALID,97,VALID,0.275868,
2006-01-25, 02:09:00,VALID,917.525,VALID,0,VALID,99.2208,VALID,0.169808,VALID,17.4834,VALID,97,VALID,0.32777,
2006-01-25, 02:10:00,VALID,917.516,VALID,0,VALID,99.1864,VALID,0.101885,VALID,17.4476,VALID,97,VALID,0.324128,
2006-01-25, 02:11:00,VALID,917.499,VALID,0,VALID,99.4357,VALID,0.135847,VALID,17.4381,VALID,97,VALID,0.433061,
2006-01-25, 02:12:00,VALID,917.51,VALID,0,VALID,99.4649,VALID,0.152827,VALID,17.4321,VALID,97,VALID,0.0639205,
2006-01-25, 02:13:00,VALID,917.507,VALID,0,VALID,99.512,VALID,0.152827,VALID,17.3996,VALID,97,VALID,0.00285823,
2006-01-25, 02:14:00,VALID,917.502,VALID,0,VALID,99.6366,VALID,0.118866,VALID,17.4161,VALID,97,VALID,0.0802557,
2006-01-25, 02:15:00,VALID,917.484,VALID,0,VALID,99.8795,VALID,0.135847,VALID,17.4151,VALID,97,VALID,0.0149148,
2006-01-25, 02:16:00,VALID,917.475,VALID,0,VALID,99.943,VALID,0.152827,VALID,17.4282,VALID,97,VALID,0,
2006-01-25, 02:17:00,VALID,917.457,VALID,0,VALID,99.9532,VALID,0.186789,VALID,17.4411,VALID,97,VALID,0,
2006-01-25, 02:18:00,VALID,917.444,VALID,0,VALID,99.9621,VALID,0.186789,VALID,17.4635,VALID,97,VALID,0,
2006-01-25, 02:19:00,VALID,917.428,VALID,0,VALID,99.9697,VALID,0.20377,VALID,17.4702,VALID,97,VALID,0,
2006-01-25, 02:20:00,VALID,917.408,VALID,0,VALID,99.9761,VALID,0.101885,VALID,17.4937,VALID,97,VALID,0,
2006-01-25, 02:21:00,VALID,917.392,VALID,0,VALID,99.8489,VALID,0.0679233,VALID,17.4942,VALID,97,VALID,0,
2006-01-25, 02:22:00,VALID,917.387,VALID,0,VALID,99.8095,VALID,0.0339617,VALID,17.4847,VALID,97,VALID,0.0682664,
2006-01-25, 02:23:00,VALID,917.399,VALID,0,VALID,99.9125,VALID,0.0339617,VALID,17.4877,VALID,97,VALID,0.0010016,
2006-01-25, 02:24:00,VALID,917.397,VALID,0,VALID,99.972,VALID,0.0509425,VALID,17.511,VALID,97,VALID,0.138951,
2006-01-25, 02:25:00,VALID,917.402,VALID,0,VALID,99.971,VALID,0.0169808,VALID,17.5202,VALID,97,VALID,0,
2006-01-25, 02:26:00,VALID,917.405,VALID,0,VALID,99.9316,VALID,0.0679233,VALID,17.5428,VALID,97,VALID,0,
2006-01-25, 02:27:00,VALID,917.415,VALID,0,VALID,99.8515,VALID,0.0169808,VALID,17.5267,VALID,97,VALID,0,
2006-01-25, 02:28:00,VALID,917.42,VALID,0,VALID,99.8642,VALID,0.0679233,VALID,17.5461,VALID,97,VALID,0,
2006-01-25, 02:29:00,VALID,917.43,VALID,0,VALID,99.9074,VALID,0.0169808,VALID,17.5659,VALID,97,VALID,0,
2006-01-25, 02:30:00,VALID,917.427,VALID,0,VALID,99.8604,VALID,0,VALID,17.595,VALID,97,VALID,0,
2006-01-25, 02:31:00,VALID,917.427,VALID,0,VALID,99.5679,VALID,0.0509425,VALID,17.5816,VALID,97,VALID,0,
2006-01-25, 02:32:00,VALID,917.438,VALID,0,VALID,99.5348,VALID,0.0169808,VALID,17.5816,VALID,97,VALID,0,
2006-01-25, 02:33:00,VALID,917.442,VALID,0,VALID,99.6239,VALID,0.0339617,VALID,17.5851,VALID,97,VALID,0,
2006-01-25, 02:34:00,VALID,917.447,VALID,0,VALID,99.6048,VALID,0.0339617,VALID,17.6049,VALID,97,VALID,0.124619,
2006-01-25, 02:35:00,VALID,917.439,VALID,0,VALID,99.4878,VALID,0.0339617,VALID,17.5881,VALID,97,VALID,0.0864955,
2006-01-25, 02:36:00,VALID,917.436,VALID,0,VALID,99.409,VALID,0.0849042,VALID,17.571,VALID,97,VALID,0.317535,
2006-01-25, 02:37:00,VALID,917.441,VALID,0,VALID,99.4853,VALID,0.118866,VALID,17.5577,VALID,97,VALID,0.39939,
2006-01-25, 02:38:00,VALID,917.446,VALID,0,VALID,99.5819,VALID,0.118866,VALID,17.5417,VALID,97,VALID,0.447569,
2006-01-25, 02:39:00,VALID,917.447,VALID,0,VALID,99.7256,VALID,0.135847,VALID,17.5387,VALID,97,VALID,0.468359,
2006-01-25, 02:40:00,VALID,917.444,VALID,0,VALID,99.7981,VALID,0.135847,VALID,17.5224,VALID,101,VALID,0.513139,
2006-01-25, 02:41:00,VALID,917.465,VALID,0,VALID,99.8985,VALID,0.152827,VALID,17.5217,VALID,128,VALID,0.600713,
2006-01-25, 02:42:00,VALID,917.478,VALID,0,VALID,99.9443,VALID,0.152827,VALID,17.5157,VALID,128,VALID,0.379724,
2006-01-25, 02:43:00,VALID,917.478,VALID,0,VALID,99.9797,VALID,0.135847,VALID,17.5256,VALID,132,VALID,0.444957,
2006-01-25, 02:44:00,VALID,917.485,VALID,0,VALID,100,VALID,0.135847,VALID,17.5256,VALID,161,VALID,0.752548,
2006-01-25, 02:45:00,VALID,917.483,VALID,0,VALID,100,VALID,0.135847,VALID,17.5284,VALID,163,VALID,0.616655,
2006-01-25, 02:46:00,VALID,917.471,VALID,0,VALID,100,VALID,0.118866,VALID,17.5251,VALID,160,VALID,0.633539,
2006-01-25, 02:47:00,VALID,917.461,VALID,0,VALID,100,VALID,0.118866,VALID,17.542,VALID,151,VALID,0.485491,
2006-01-25, 02:48:00,VALID,917.468,VALID,0,VALID,100,VALID,0.118866,VALID,17.5512,VALID,150,VALID,0.403274,
2006-01-25, 02:49:00,VALID,917.466,VALID,0,VALID,100,VALID,0.118866,VALID,17.568,VALID,150,VALID,0.318407,
2006-01-25, 02:50:00,VALID,917.474,VALID,0,VALID,100,VALID,0.135847,VALID,17.587,VALID,150,VALID,0.49349,
2006-01-25, 02:51:00,VALID,917.461,VALID,0,VALID,100,VALID,0.152827,VALID,17.5934,VALID,149,VALID,0.471168,
2006-01-25, 02:52:00,VALID,917.444,VALID,0,VALID,100,VALID,0.186789,VALID,17.6059,VALID,149,VALID,0.669695,
2006-01-25, 02:53:00,VALID,917.429,VALID,0,VALID,100,VALID,0.135847,VALID,17.6059,VALID,144,VALID,0.884527,
2006-01-25, 02:54:00,VALID,917.422,VALID,0,VALID,100,VALID,0.169808,VALID,17.6251,VALID,146,VALID,0.71005,
2006-01-25, 02:55:00,VALID,917.418,VALID,0,VALID,100,VALID,0.118866,VALID,17.6352,VALID,146,VALID,0.587326,
2006-01-25, 02:56:00,VALID,917.395,VALID,0,VALID,100,VALID,0.101885,VALID,17.6449,VALID,148,VALID,0.574886,
2006-01-25, 02:57:00,VALID,917.393,VALID,0,VALID,100,VALID,0.135847,VALID,17.6736,VALID,153,VALID,0.641387,
2006-01-25, 02:58:00,VALID,917.396,VALID,0,VALID,100,VALID,0.135847,VALID,17.6872,VALID,153,VALID,0.441964,
2006-01-25, 02:59:00,VALID,917.394,VALID,0,VALID,100,VALID,0.135847,VALID,17.7031,VALID,153,VALID,0.328646,
2006-01-25, 03:00:00,VALID,917.401,VALID,0,VALID,100,VALID,0.152827,VALID,17.7029,VALID,153,VALID,0.278409,
2006-01-25, 03:01:00,VALID,917.39,VALID,0,VALID,100,VALID,0.135847,VALID,17.7188,VALID,153,VALID,0.3254,
2006-01-25, 03:02:00,VALID,917.393,VALID,0,VALID,100,VALID,0.135847,VALID,17.722,VALID,153,VALID,0.205602,
2006-01-25, 03:03:00,VALID,917.397,VALID,0,VALID,99.999,VALID,0.152827,VALID,17.7317,VALID,153,VALID,0.0951705,
2006-01-25, 03:04:00,VALID,917.4,VALID,0,VALID,99.9735,VALID,0.135847,VALID,17.7414,VALID,153,VALID,0.00571646,
2006-01-25, 03:05:00,VALID,917.392,VALID,0,VALID,99.9443,VALID,0.135847,VALID,17.7553,VALID,153,VALID,0.043968,
2006-01-25, 03:06:00,VALID,917.392,VALID,0,VALID,99.9456,VALID,0.0679233,VALID,17.7359,VALID,153,VALID,0.0713405,
2006-01-25, 03:07:00,VALID,917.383,VALID,0,VALID,99.929,VALID,0.0169808,VALID,17.7555,VALID,153,VALID,0.333984,
2006-01-25, 03:08:00,VALID,917.377,VALID,0,VALID,99.9227,VALID,0.0679233,VALID,17.7753,VALID,153,VALID,0.398624,
2006-01-25, 03:09:00,VALID,917.37,VALID,0,VALID,99.8426,VALID,0.0679233,VALID,17.7786,VALID,153,VALID,0.306996,
2006-01-25, 03:10:00,VALID,917.374,VALID,0,VALID,99.7052,VALID,0.0339617,VALID,17.7945,VALID,159,VALID,0.398793,
2006-01-25, 03:11:00,VALID,917.369,VALID,0,VALID,99.5412,VALID,0.0339617,VALID,17.8072,VALID,160,VALID,0.50186,
2006-01-25, 03:12:00,VALID,917.348,VALID,0,VALID,99.3912,VALID,0.0679233,VALID,17.8264,VALID,161,VALID,0.556021,
2006-01-25, 03:13:00,VALID,917.347,VALID,0,VALID,99.2386,VALID,0.0849042,VALID,17.846,VALID,162,VALID,0.507118,
2006-01-25, 03:14:00,VALID,917.357,VALID,0,VALID,99.1406,VALID,0.0849042,VALID,17.8619,VALID,162,VALID,0.494792,
2006-01-25, 03:15:00,VALID,917.345,VALID,0,VALID,98.997,VALID,0.0509425,VALID,17.8884,VALID,162,VALID,0.339939,
2006-01-25, 03:16:00,VALID,917.344,VALID,0,VALID,98.8673,VALID,0.0339617,VALID,17.8979,VALID,162,VALID,0.198847,
2006-01-25, 03:17:00,VALID,917.332,VALID,0,VALID,98.8049,VALID,0.0679233,VALID,17.9044,VALID,162,VALID,0.223586,
2006-01-25, 03:18:00,VALID,917.319,VALID,0,VALID,98.8367,VALID,0.0849042,VALID,17.9042,VALID,162,VALID,0.0658482,
2006-01-25, 03:19:00,VALID,917.308,VALID,0,VALID,98.8584,VALID,0.0339617,VALID,17.9069,VALID,162,VALID,0,
2006-01-25, 03:20:00,VALID,917.304,VALID,0,VALID,98.8507,VALID,0.0509425,VALID,17.9235,VALID,162,VALID,0,
2006-01-25, 03:21:00,VALID,917.313,VALID,0,VALID,98.8507,VALID,0.118866,VALID,17.9127,VALID,162,VALID,0.146307,
2006-01-25, 03:22:00,VALID,917.312,VALID,0,VALID,98.8533,VALID,0.0849042,VALID,17.9162,VALID,162,VALID,0.332617,
2006-01-25, 03:23:00,VALID,917.289,VALID,0,VALID,98.7986,VALID,0.118866,VALID,17.9063,VALID,162,VALID,0.395275,
2006-01-25, 03:24:00,VALID,917.275,VALID,0,VALID,98.6981,VALID,0.101885,VALID,17.9095,VALID,162,VALID,0.45476,
2006-01-25, 03:25:00,VALID,917.265,VALID,0,VALID,98.6346,VALID,0.118866,VALID,17.9063,VALID,154,VALID,0.300509,
2006-01-25, 03:26:00,VALID,917.261,VALID,0,VALID,98.6282,VALID,0.101885,VALID,17.8931,VALID,154,VALID,0.148785,
2006-01-25, 03:27:00,VALID,917.268,VALID,0,VALID,98.5735,VALID,0.118866,VALID,17.916,VALID,154,VALID,0.188408,
2006-01-25, 03:28:00,VALID,917.262,VALID,0,VALID,98.5939,VALID,0.101885,VALID,17.9065,VALID,154,VALID,0.249822,
2006-01-25, 03:29:00,VALID,917.256,VALID,0,VALID,98.5977,VALID,0.135847,VALID,17.9063,VALID,154,VALID,0.181593,
2006-01-25, 03:30:00,VALID,917.245,VALID,0,VALID,98.6155,VALID,0.135847,VALID,17.903,VALID,154,VALID,0.237537,
2006-01-25, 03:31:00,VALID,917.233,VALID,0,VALID,98.6231,VALID,0.152827,VALID,17.8765,VALID,154,VALID,0.118576,
2006-01-25, 03:32:00,VALID,917.235,VALID,0,VALID,98.6689,VALID,0.186789,VALID,17.8834,VALID,154,VALID,0.27381,
2006-01-25, 03:33:00,VALID,917.236,VALID,0,VALID,98.707,VALID,0.152827,VALID,17.8573,VALID,153,VALID,0.500908,
2006-01-25, 03:34:00,VALID,917.236,VALID,0,VALID,98.7757,VALID,0.118866,VALID,17.8511,VALID,148,VALID,0.603087,